Simultaneous Nadir Overpasses (SNOs) Predictions

Prediction of SNOs between NOAA-19 and NPP Satellite Orbit:

Table of predicted SNOs for the next 14.0 days since TLE Epoch: 4/6/2018
Index Date (NOAA-19) Time (NOAA-19) Lat,Lon (NOAA-19) SZA (NOAA-19 ) Date (NPP) Time (NPP) Lat,Lon (NPP) SZA (NPP ) Distance(km) Time Diff (sec)
1 04/17/2018 06:22:29 -80.59,-141.92 106.93 04/17/2018 06:23:36 -80.59,-141.83 106.98 1.94 67
2 04/17/2018 07:13:33 80.60, 25.35 73.06 04/17/2018 07:14:21 80.59, 25.40 73.02 1.09 48
3 04/17/2018 08:04:30 -80.60,-167.35 106.97 04/17/2018 08:05:06 -80.59,-167.23 107.00 2.35 36
4 04/17/2018 08:55:34 80.60, -0.08 73.02 04/17/2018 08:55:51 80.59, -0.00 73.00 1.55 17
5 04/17/2018 09:46:31 -80.60, 167.23 107.00 04/17/2018 09:46:36 -80.59, 167.37 107.02 2.76 5
6 04/17/2018 10:37:35 80.60, -25.51 72.99 04/17/2018 10:37:21 80.60, -25.40 72.98 2.01 14
7 04/17/2018 11:28:32 -80.60, 141.81 107.03 04/17/2018 11:28:06 -80.59, 141.96 107.05 3.16 26
8 04/17/2018 12:19:36 80.61, -50.94 72.96 04/17/2018 12:18:51 80.60, -50.81 72.96 2.47 45
9 04/17/2018 13:10:33 -80.61, 116.38 107.06 04/17/2018 13:09:37 -80.62, 116.23 107.01 3.03 56




NCC Satellite Simultaneous Nadir Overpasses (SNOs) Prediction Service
